Moose, WY

7:47 AM MST on February 20, 2017 (GMT -0700)
Jackson Hole

Weather History for KJAC - August, 2013

Change the Weather History Date:

Friday, August 16, 2013

  Actual Average Record
Temperature  
Mean Temperature 62 °F -  
Max Temperature 87 °F 77 °F 87 °F (1962)
Min Temperature 37 °F 40 °F 26 °F (1966)
Degree Days  
Heating Degree Days 3    
Growing Degree Days 12 (Base 50)    
Moisture  
Dew Point 28 °F    
Average Humidity 37    
Maximum Humidity 70    
Minimum Humidity 9    
Precipitation  
Precipitation 0.00 in - - ()
Sea Level Pressure  
Sea Level Pressure 30.26 in    
Wind  
Wind Speed 5 mph (North)    
Max Wind Speed 10 mph    
Max Gust Speed 18 mph    
Visibility 10 miles    
Events      
Averages and records for this station are not official NWS values.
T = Trace of Precipitation, MM = Missing Value Source: NWS Daily Summary

Daily Weather History Graph

Daily Weather History Graph

Search for Another Location

Airport or City:

Trip Planner

Search our weather history database for the weather conditions in past years. The results will help you decide how hot, cold, wet, or windy it might be!

Date:

Astronomy

Aug. 16, 2013 Rise Set
Actual Time 6:29 AM MDT 8:24 PM MDT
Civil Twilight 5:58 AM MDT 8:55 PM MDT
Nautical Twilight 5:20 AM MDT 9:32 PM MDT
Astronomical Twilight 4:39 AM MDT 10:13 PM MDT
Moon 4:50 PM MDT (8/16) 1:31 AM MDT (8/16)
Length of Visible Light 14h 57m
Length of Day
13h 55m
Waxing Gibbous, 75% of the Moon is Illuminated
Aug 16
Waxing Gibbous
Aug 20
Full
Aug 28
Last Quarter
Sep 5
New
Sep 12
First Quarter

Hourly Weather History & Observations

Time (MDT) Temp. Windchill Dew Point Humidity Pressure Visibility Wind Dir Wind Speed Gust Speed Precip Events Conditions
12:15 AM 48.2 °F - 30.2 °F 50% 30.26 in 10.0 mi North 4.6 mph - N/A   Clear
12:35 AM 50.0 °F - 30.2 °F 47% 30.26 in 10.0 mi North 8.1 mph - N/A   Clear
12:55 AM 50.0 °F - 28.4 °F 43% 30.26 in 10.0 mi North 10.4 mph - N/A   Clear
1:15 AM 48.2 °F - 28.4 °F 46% 30.26 in 10.0 mi North 5.8 mph - N/A   Clear
1:35 AM 46.4 °F 43.5 °F 28.4 °F 50% 30.26 in 10.0 mi NNW 5.8 mph - N/A   Clear
1:55 AM 46.4 °F 43.5 °F 28.4 °F 50% 30.26 in 10.0 mi North 5.8 mph - N/A   Clear
2:15 AM 44.6 °F 40.2 °F 28.4 °F 53% 30.26 in 10.0 mi North 8.1 mph - N/A   Clear
2:35 AM 46.4 °F 44.3 °F 28.4 °F 50% 30.26 in 10.0 mi NNE 4.6 mph - N/A   Clear
2:55 AM 48.2 °F - 28.4 °F 46% 30.26 in 10.0 mi North 3.5 mph - N/A   Clear
3:15 AM 48.2 °F - 28.4 °F 46% 30.27 in 10.0 mi North 3.5 mph - N/A   Clear
3:35 AM 46.4 °F 43.5 °F 28.4 °F 50% 30.27 in 10.0 mi North 5.8 mph - N/A   Clear
3:55 AM 44.6 °F 40.2 °F 30.2 °F 57% 30.27 in 10.0 mi North 8.1 mph - N/A   Clear
4:15 AM 41.0 °F 36.4 °F 30.2 °F 65% 30.28 in 10.0 mi North 6.9 mph - N/A   Clear
4:35 AM 42.8 °F 40.1 °F 30.2 °F 61% 30.28 in 10.0 mi North 4.6 mph - N/A   Clear
4:55 AM 46.4 °F 43.5 °F 28.4 °F 50% 30.28 in 10.0 mi NNW 5.8 mph - N/A   Clear
5:15 AM 42.8 °F - 28.4 °F 57% 30.28 in 10.0 mi Calm Calm - N/A   Clear
5:35 AM 42.8 °F - 28.4 °F 57% 30.29 in 10.0 mi Calm Calm - N/A   Clear
5:55 AM 42.8 °F - 26.6 °F 53% 30.30 in 10.0 mi Calm Calm - N/A   Clear
6:15 AM 39.2 °F 35.9 °F 26.6 °F 61% 30.30 in 10.0 mi North 4.6 mph - N/A   Clear
6:35 AM 37.4 °F 32.8 °F 28.4 °F 70% 30.31 in 10.0 mi North 5.8 mph - N/A   Clear
7:51 AM 44.6 °F 40.7 °F 32.0 °F 61% 30.32 in 10.0 mi NNW 6.9 mph - N/A   Smoke
8:51 AM 53.6 °F - 28.4 °F 38% 30.33 in 10.0 mi Calm Calm - N/A   Smoke
9:54 AM 60.8 °F - 28.4 °F 29% 30.33 in 10.0 mi Calm Calm - N/A   Smoke
10:52 AM 64.4 °F - 30.2 °F 28% 30.32 in 10.0 mi Calm Calm - N/A   Smoke
11:51 AM 71.6 °F - 32.0 °F 23% 30.30 in 10.0 mi South 3.5 mph - N/A   Smoke
12:54 PM 77.0 °F - 30.2 °F 18% 30.27 in 10.0 mi SSE 4.6 mph - N/A   Smoke
1:53 PM 80.6 °F - 32.0 °F 17% 30.24 in 10.0 mi South 4.6 mph - N/A   Smoke
2:51 PM 87.8 °F - 26.6 °F 11% 30.23 in 10.0 mi South 6.9 mph 18.4 mph N/A   Clear
3:51 PM 87.8 °F - 21.2 °F 9% 30.21 in 10.0 mi South 10.4 mph - N/A   Clear
4:51 PM 84.2 °F - 23.0 °F 11% 30.21 in 10.0 mi Calm Calm - N/A   Clear
5:52 PM 84.2 °F - 26.6 °F 12% 30.20 in 10.0 mi WSW 3.5 mph - N/A   Clear
6:51 PM 86.0 °F - 24.8 °F 11% 30.20 in 10.0 mi WSW 8.1 mph - N/A   Clear
7:51 PM 77.0 °F - 24.8 °F 14% 30.20 in 10.0 mi West 5.8 mph - N/A   Clear
8:51 PM 71.6 °F - 24.8 °F 17% 30.22 in 10.0 mi SE 5.8 mph - N/A   Clear
9:15 PM 66.2 °F - 24.8 °F 21% 30.23 in 10.0 mi East 10.4 mph - N/A   Clear
9:35 PM 66.2 °F - 23.0 °F 19% 30.24 in 10.0 mi NNE 3.5 mph - N/A   Clear
9:55 PM 69.8 °F - 23.0 °F 17% 30.24 in 10.0 mi SE 4.6 mph - N/A   Clear
10:15 PM 66.2 °F - 23.0 °F 19% 30.24 in 10.0 mi East 8.1 mph - N/A   Clear
10:35 PM 66.2 °F - 23.0 °F 19% 30.25 in 10.0 mi Calm Calm - N/A   Clear
10:55 PM 62.6 °F - 26.6 °F 26% 30.24 in 10.0 mi NE 3.5 mph - N/A   Clear
11:15 PM 55.4 °F - 26.6 °F 33% 30.24 in 10.0 mi Calm Calm - N/A   Clear
11:35 PM 55.4 °F - 28.4 °F 36% 30.25 in 10.0 mi Calm Calm - N/A   Clear
11:55 PM 55.4 °F - 28.4 °F 36% 30.24 in 10.0 mi North 10.4 mph - N/A   Clear